Flag for Norway Weather past 2 weeks in Halden, Norway

Now
77 °F

Warm.


Feels Like: 79 °F
Forecast: 63 / 82 °F
Wind: 8 mph from Southwest

Location: Stromtangen Fyr

Current Time: Jul 22, 2014 at 10:14:05 PM

Latest Report: Jul 22, 2014 at 6:00 PM


Visibility: N/A

Pressure: 30.23 "Hg

Humidity: 62%

Dew point: 63 °F

Location of HaldenLocation

Historic Weather in Halden — Graph

°F

Halden temperature yesterday

Maximum temperature yesterday: 82 °F (at 7:00 PM)
Minimum temperature yesterday: 65 °F (at 5:00 AM)
Average temperature yesterday: 73 °F

Past Weeks' High & Low Weather Summary

 TemperatureHumidityPressure
High82 °F (Jul 21, 7:00 PM)89% (Jul 8, 10:00 AM)30.26 "Hg (Jul 8, 10:00 AM)
Low60 °F (Jul 8, 3:00 AM)34% (Jul 12, 5:00 PM)29.60 "Hg (Jul 14, 12:00 AM)
Average69 °F67%30.01 "Hg
* Reported Jul 7 8:00 PM — Jul 22 6:00 PM, Halden, Weather by CustomWeather, © 2014

Note: Actual official high and low records may vary slightly from our data, if they occured in-between our weather recording intervals... More about our weather records

Advertising

Halden weather history for previous 24 hours

 ConditionsComfort  
Time TempWeatherWind HumidityBarometerVisibility
6:00 PM
Jul 22
77 °FWarm.8 mph62%30.23 "HgN/A
5:00 PM77 °FWarm.7 mph62%30.23 "HgN/A
4:00 PM78 °FWarm.6 mph65%30.24 "HgN/A
3:00 PM76 °FMild.6 mph72%30.24 "HgN/A
2:00 PM78 °FWarm.5 mph59%30.25 "HgN/A
1:00 PM77 °FWarm.5 mph62%30.26 "HgN/A
12:00 PM75 °FMild.3 mph67%30.26 "HgN/A
11:00 AM75 °FMild.3 mph65%30.25 "HgN/A
10:00 AM74 °FMild.2 mph58%30.25 "HgN/A
9:00 AM76 °FMild.1 mph51%30.24 "HgN/A
8:00 AM72 °FMild.5 mph62%30.24 "HgN/A
7:00 AM69 °FMild.6 mph67%30.23 "HgN/A
6:00 AM67 °FMild.7 mph71%30.21 "HgN/A
5:00 AM67 °FMild.5 mph72%30.21 "HgN/A
3:00 AM67 °FMild.2 mph68%30.19 "HgN/A
2:00 AM68 °FMild.3 mph70%30.19 "HgN/A
1:00 AM72 °FMild.2 mph64%30.18 "HgN/A
12:00 AM74 °FMild.1 mph54%30.16 "HgN/A
11:00 PM
Jul 21
75 °FMild.2 mph63%30.15 "HgN/A
10:00 PM77 °FMild.5 mph59%30.14 "HgN/A
Weather by CustomWeather, © 2014

See weather overviewHow to use our weather pages